Regional Weather Roundup
Issued by NWS

Home | Current Version | Previous Version | Text Only | Print | Product List | Glossary On
Versions: 1 2 3 4 5 6 7 8 9 10 11 12 13 14 15 16 17 18
000
ASUS42 KTBW 230717
RWRFL
FLORIDA REGIONAL WEATHER ROUNDUP
NATIONAL WEATHER SERVICE TAMPA BAY RUSKIN FL
200 AM EST TUE JAN 23 2018

NOTE: "FAIR" INDICATES FEW OR NO CLOUDS BELOW 12,000 FEET WITH NO
SIGNIFICANT WEATHER AND/OR OBSTRUCTIONS TO VISIBILITY.

FLZ001>010-012>015-112-114-115-230800-
PANHANDLE FLORIDA

CITY           SKY/WX    TMP DP  RH WIND       PRES   REMARKS
PENSACOLA      FAIR      61  58  90 NW10      29.99R
PENSACOLA NAS  FAIR      60  56  86 NW8       29.98S
MILTON NAS     FAIR      60  58  92 NW12      29.99
CRESTVIEW      FAIR      63  61  93 W9        29.98S
DUKE FIELD     CLOUDY    64  64 100 W12       29.96R FOG
VALPARAISO     CLOUDY    65  65 100 W13       29.96R FOG
PANAMA CITY    FOG       63  62  97 S5        29.95S VSB 3/4
TYNDALL AFB    MOCLDY    62  62 100 S6        29.97S
APALACHICOLA   FAIR      60  60 100 W3        29.97R

STATION/POSITION SKY/WX   TEMP    WIND        PRES    WAVE   SWELL
                          AIR SEA DIR/SP/G            HT/PER HT/PER
                          (F)     (DEG/KT/KT) (MB)    (FT/S) (FT/S)
29.2N   88.2W              65 68  320/ 17/ 21 1016.9
28.8N   86.0W              70 69  230/ 10/ 12 1015.0R   4/ 6   3/ 6
PANAMA CITY BEAC           62 57   CALM  /  3 1014.7F
TOWER C                    66     190/ 15/ 16 1015.0S

$$
FLZ011-016>038-118-127-128-134-139-239-230800-
NORTH FLORIDA

CITY           SKY/WX    TMP DP  RH WIND       PRES   REMARKS
MARIANNA       CLOUDY    66  64  93 SW10      29.93F
TALLAHASSEE    CLOUDY    62  62 100 S7        29.98S FOG
PERRY          CLOUDY    66  64  92 S9        30.00S
LIVE OAK       CLOUDY    66  66 100 VRB3G12   30.01S
CROSS CITY     LGT RAIN  64 N/A N/A S8        30.06S
LAKE CITY      LGT RAIN  63  63 100 SW10G16   30.01R
GAINESVILLE    HVY RAIN  64  63  96 SW3       30.05S FOG
WILLISTON        N/A     66  66 100 E3        30.02F FOG
PALATKA        LGT RAIN  64  64 100 S6        30.03F
MAYPORT NAS    LGT RAIN  65  65 100 SW7       30.01
JACKSONVILLE   LGT RAIN  66  64  93 S10       29.99F
JAX NAS        LGT RAIN  66  65  96 S8        30.02S
JAX CECIL      LGT RAIN  64  64 100 MISG      30.01F
FERNANDINA BEA MOCLDY    66  63  88 S10       29.98F
ST AUGUSTINE   LGT RAIN  66  65  96 S8        30.02F
PALM COAST     DRIZZLE   66  65  96 S6        30.04S

STATION/POSITION SKY/WX   TEMP    WIND        PRES    WAVE   SWELL
                          AIR SEA DIR/SP/G            HT/PER HT/PER
                          (F)     (DEG/KT/KT) (MB)    (FT/S) (FT/S)
SHELL POINT      NOT AVBL
KEATON BEACH               63     150/ 18/ 21 1015.2F
CEDAR KEY                  58     160/ 10/ 11 1016.3F
FERNANDINA                 65 50  160/  8/ 13 1016.1F
30.7N   81.3W                 50                N/A     2/ 5
MAYPORT                    65 51  210/  5/  8 1016.1F
31.4N   80.9W              57 52  170/ 10/ 10 1015.1R   2/ 5   2/ 5
ST AUGUSTINE               66 53  200/  9/ 11 1016.6F

$$
FLZ040-043>046-052-053-057-058-063-144-230800-
INTERIOR CENTRAL FLORIDA

CITY           SKY/WX    TMP DP  RH WIND       PRES   REMARKS
OCALA          LGT RAIN  65  64  97 S6        30.04S FOG
LEESBURG       HVY RAIN  66  66 100 CALM      30.04F FOG
SANFORD        LGT RAIN  68  66  93 S6        30.04S FOG
ORLANDO EXEC   CLOUDY    69  67  93 S3        30.04S
ORLANDO INTL   CLOUDY    67  67 100 S5        30.04S
KISSIMMEE      LGT RAIN  68  66  93 S7        30.04F
WINTER HAVEN   CLOUDY    66  64  93 CALM      30.05F
LAKELAND       CLOUDY    64  64 100 CALM      30.04S
BARTOW         CLOUDY    64  64 100 CALM      30.04F
SEBRING        PTSUNNY   67  64  88 CALM      30.04S
OKEECHOBEE     FAIR      66  64  94 SE3       30.04S

$$
FLZ041-047-054-059-064-141-147-230800-
EAST CENTRAL FLORIDA

CITY           SKY/WX    TMP DP  RH WIND       PRES   REMARKS
DAYTONA BEACH  LGT RAIN  67  67 100 S3        30.04S
DELAND         LGT RAIN  68  66  94 S6        30.04S
JFK SPACE CTR  MOCLDY    68  68 100 S6        30.02F
CAPE CANAVERAL FAIR      67  64  90 S8        30.03S
PATRICK AFB    FAIR      68  68 100 S10       30.03F
MELBOURNE      MOCLDY    72  67  84 S7        30.03F
VERO BEACH     MOCLDY    70  67  90 SE10      30.04F
FT PIERCE      FAIR      70  68  93 SE8       30.04F
STUART         CLOUDY    70  68  94 SE7       30.05F

STATION/POSITION SKY/WX   TEMP    WIND        PRES    WAVE   SWELL
                          AIR SEA DIR/SP/G            HT/PER HT/PER
                          (F)     (DEG/KT/KT) (MB)    (FT/S) (FT/S)
28.5N   80.2W              73 72  160/ 14/ 16 1016.9
TRIDENT PIER               64 62  160/  6/  8 1018.8F
28.4N   80.5W                 62                N/A     3/ 5
27.5N   80.2W                 70                N/A     3/ 5

$$
FLZ050-056-061-142-242-148-248-149-249-151-251-155-255-
160-260-230800-
WEST CENTRAL FLORIDA

CITY           SKY/WX    TMP DP  RH WIND       PRES   REMARKS
CRYSTAL RIVER  LGT RAIN  64  64 100 CALM      30.04R
INVERNESS      HVY RAIN  64  64 100 SE5       30.04S
BROOKSVILLE    CLOUDY    64  64 100 CALM      30.05S
CLEARWATER AIR CLOUDY    64  64 100 CALM      30.02F FOG
ST PETE CLEARW CLOUDY    66  65  96 CALM      30.02F FOG
TAMPA INTL     CLOUDY    68  65  90 CALM      30.03F
TAMPA EXEC     CLOUDY    64  63  94 CALM      30.04F FOG
PLANT CITY     CLOUDY    66  64  94 CALM      30.05F
MACDILL AFB    CLOUDY    66  64  94 E6        30.03S
PETER O KNIGHT CLOUDY   N/A N/A N/A E3        30.03F
ST PETERSBURG  FOG       62  62 100 CALM      30.01F VSB 1/2
SARASOTA       MOCLDY    68  65  90 SE3       30.02S
VENICE           N/A     68  66  94 SE5       30.04S

STATION/POSITION SKY/WX   TEMP    WIND        PRES    WAVE   SWELL
                          AIR SEA DIR/SP/G            HT/PER HT/PER
                          (F)     (DEG/KT/KT) (MB)    (FT/S) (FT/S)
27.3N   84.2W                 70                N/A     3/ 5
CLEARWATER BEACH           65 56   90/  3/  7 1016.9S
MIDDLE TAMPA BAY           62      70/  6/  7 1017.0S
VENICE                     68 60  120/  4/  5 1016.8S

$$
FLZ066-069-070-075>078-162-262-165-265-230800-
SOUTHWEST FLORIDA AND KEYS

CITY           SKY/WX    TMP DP  RH WIND       PRES   REMARKS
PUNTA GORDA    MOCLDY    69  64  84 S7        30.04S
FT MYERS       FAIR      70  66  87 SE8       30.01F
SOUTHWEST INTL CLOUDY    69  67  93 SE8       30.03F
NAPLES         FAIR      69  66  90 E5        30.03S
MARCO ISLAND   FAIR      67  65  93 E5        30.04F
IMMOKALEE      MOCLDY    68  64  88 SE3       30.05S
MARATHON       MOCLDY    74  69  85 E6        30.02F
KEY WEST NAS   CLOUDY    72  72 100 E8        30.02
KEY WEST INTL  CLOUDY    71  70  96 E5        30.03S

STATION/POSITION SKY/WX   TEMP    WIND        PRES    WAVE   SWELL
                          AIR SEA DIR/SP/G            HT/PER HT/PER
                          (F)     (DEG/KT/KT) (MB)    (FT/S) (FT/S)
NAPLES                        63  110/  5/  8 1016.9S
DRY TORTUGAS               69     110/  8/  9 1016.4F
SAND KEY                   74                 1017.3F
LONG KEY                   71     120/  8     1016.5F
MOLASSES REEF              74 74  110/ 12/ 14 1017.2F

$$
FLZ067-068-071>074-168-172>174-230800-
SOUTHEAST FLORIDA

CITY           SKY/WX    TMP DP  RH WIND       PRES   REMARKS
W PALM BEACH   FAIR      72  69  90 SE9       30.04F
FT LAUDER-EXEC FAIR      74  71  91 SE10      30.03F
FT LAUDERDALE  MOCLDY    73  72  96 SE13      30.02F
POMPANO BEACH  FAIR      75  72  90 SE15      30.03F
PEMBROKE PINES MOCLDY    74  69  85 SE9       30.05F
OPA LOCKA      FAIR      73  70  90 SE8       30.04F
MIAMI          MOCLDY    73  70  90 SE8       30.04F
WEST KENDALL   FAIR      71  68  90 SE7       30.04F
HOMESTEAD      FAIR      71  71 100 E6        30.03F

STATION/POSITION SKY/WX   TEMP    WIND        PRES    WAVE   SWELL
                          AIR SEA DIR/SP/G            HT/PER HT/PER
                          (F)     (DEG/KT/KT) (MB)    (FT/S) (FT/S)
VIRGINIA KEY               74 71  100/  8/ 12 1016.9F
LAKE WORTH                 74 73  130/ 14/ 16 1018.2F
FOWEY ROCKS                74 73  110/ 17/ 18 1017.5F
SETTLEMENT POINT           71      90/  5/  6 1017.9F

$$





USA.gov is the U.S. government's official web portal to all federal, state and local government web resources and services.